Время (UTC), дата Ветер
(°,м/с) 
Видим.   Явления Облачность Т
(°С)
Тd
(°С)
f(%) Тe
(°С)
Pmin
(гПа)
dP
(гПа)
Po
(мм)
O2
(г/м3)
Тmin Tmax R s Состояние
почвы
00 01.01.13 270 (З) 10-14{15}  >10 км    ясно 
+1.1 -5.6 61 -4  1021.2  -1  724  291           
03 01.01.13 270 (З) >10 км    8/5 600 м средняя 
[Sc|Ac trans]
-0 -1.6 89 -4  1021.7  0.3  724  292  -0.2      мокрый или
старый снег
50-90% 
06 01.01.13 270 (З) 8-12  10 км    10/6 120 м средняя 
[St|Ac und]
+0 -0.6 96 -4  1022.4  0.7  725  292  -0.3         
09 01.01.13 270 (З) 9-12{12}  >10 км    8/3 200 м средняя 
[St|Ac trans]
+1.7 -0.3 87 -2  1022.5  0.4  725  290           
12 01.01.13 260 (З) 6{12}  >10 км    5/3 300 м средняя 
[Sc|Ac trans]
+2.1 -3.4 67 -1  1022.4  725  290           
15 01.01.13 260 (З) >10 км    3/0 средняя 
[Ac trans]
+0.5 -1.3 88 -2  1023.9  1.1  726  292    +2.3       
18 01.01.13 230 (ЮЗ) >10 км    10/0 средняя 
[Ac und]
-1 -2 93 -2  1025.7  1.4  727  294           
21 01.01.13 230 (ЮЗ) >10 км    8/0 средняя 
[Ac trans]
-0.9 -2.8 87 -3  1025.8  0.1  727  294           
00 02.01.13 270 (З) >10 км    8/0 средняя 
[Ac trans]
-0.2 -3.7 77 -1  1026.2  0.6  728  294           
03 02.01.13 270 (З) >10 км    ясно 
-1.7 -2.4 95 -3  1026.7  0.2  728  295  -3      мокрый или
старый снег
50-90% 
06 02.01.13 300 (СЗ) >10 км    3/0 средняя 
[Ac trans]
+0.7 -1.3 86 1027.8  1.5  729  293           
09 02.01.13 070 (В) >10 км    3/0 средняя 
[Ac trans]
+4.3 -3.3 58 +5  1027.4  0.3  729  290           
12 02.01.13 030 (СВ) >10 км    3/0 средняя 
[Ac trans]
+4.9 -2.8 57 +6  1027.7  0.4  729  289           
15 02.01.13 170 (Ю) >10 км    3/0 средняя 
[Ac trans]
-0.8 -5.1 73 -2  1029.7  0.7  730  296    +7.3       
18 02.01.13 180 (Ю) >10 км    ясно 
-1.3 -5 76 -2  1029.9  0.1  730  296           
21 02.01.13 170 (Ю) >10 км    ясно 
-0.4 -4.3 75 -1  1029.7  730  295           
00 03.01.13 170 (Ю) >10 км    ясно 
+1.6 -7.1 52 +1  1029  -0.3  730  293           
03 03.01.13 190 (Ю) >10 км    ясно 
+0.8 -8.9 48 -1  1028.4  -0.7  729  294  -3.4      мокрый или
старый снег
50-90% 
06 03.01.13 250 (З) >10 км    ясно 
+2.4 -7.7 47 +1  1028.5  0.4  730  292           
09 03.01.13 тихо ()   >10 км    ясно 
+9.2 -6.6 32 +9  1026.1  -1  729  285           
12 03.01.13 270 (З) >10 км    ясно 
+7.6 -10.2 27 +6  1025.3  -1  728  286           
15 03.01.13 290 (З) >10 км    ясно 
+2.7 -8.5 43 +2  1026.1  -0.2  728  291    +9.6       
18 03.01.13 300 (СЗ) >10 км    8/0 верхняя 
[Ci fib]
+1 -4.6 66 -1  1025.7  -0.7  727  292           
21 03.01.13 240 (ЮЗ) >10 км    ясно 
-2.1 -4.3 85 -3  1025.3  -1  727  295           
00 04.01.13 260 (З) >10 км    6/0 верхняя 
[Ci fib]
+1.9 -0.7 83 -1  1023  -1.3  726  290           
03 04.01.13 210 (ЮЗ) >10 км    10/0 средняя 
[Ac und]
+1.9 -1.5 78 1021.1  -1.3  724  290  -2.1      мокрый или
старый снег
50-90% 
06 04.01.13 200 (Ю) >10 км    9/3 600 м средняя 
[Sc|Ac trans]
+1.9 -2.4 73 +1  1021  -1.3  724  290           
09 04.01.13 270 (З) >10 км    10/3 600 м кучево-дожд., средняя 
[Cb calv|Ac und]
+2.8 -1.4 74 +4  1020.2  -1.3  724  289           
12 04.01.13 230 (ЮЗ) >10 км  {ливн. осадки}  10/5 600 м кучево-дожд., средняя 
[Cb calv|Ac und]
+2.5 -0.4 81 +1  1018.9  -1.3  723  289           
15 04.01.13 120 (ЮВ) >10 км  слаб. ливневой снег  10/8 700 м кучево-дожд., средняя 
[Cb cap|Ac und]
+0.9 -1.1 87 1018.1  -1  722  290    +3.2  0.0     
18 04.01.13 140 (ЮВ) >10 км  {ливн. осадки}  10/5 600 м кучево-дожд., средняя 
[Cb calv|Ac und]
+1.6 -3 72 1016.7  -1.2  721  289           
21 04.01.13 140 (ЮВ) >10 км    10/6 800 м кучево-дожд., средняя 
[Cb calv|Ac und]
+1.1 -2.9 75 1014.4  -2.2  719  289           
00 05.01.13 150 (ЮВ) >10 км    10/6 700 м кучево-дожд., средняя 
[Cb calv|Ac und]
+1.6 -4.8 62 1012.4  -1.9  718  288           
03 05.01.13 310 (СЗ) >10 км    10/4 1000 м кучево-дожд., средняя 
[Cb calv|Ac und]
+0.8 -5.4 63 1011  -1.4  717  289  -0.1    0.0  мокрый или
старый снег
50-90% 
06 05.01.13 120 (ЮВ) >10 км    8/3 1000 м кучево-дожд., верхняя 
[Cb calv|Ci fib]
-0.8 -4.1 78 -2  1010.2  -1.1  716  290  -1.2         
09 05.01.13 тихо ()   >10 км    9/4 600 м средняя, верхняя 
[Sc diur, vesp|Ac trans|Ci fib]
+2.5 -5.6 55 +3  1008.6  -0.9  716  286           
12 05.01.13 тихо ()   >10 км    10/10 600 м 
[As trans]
+1.9 -2.6 72 +2  1007.7  -0.9  715  286           
15 05.01.13 100 (В) >10 км    10/0 средняя 
[As trans]
-0.6 -3.5 81 -1  1008  -0.2  715  289    +3.6       
18 05.01.13 тихо ()   >10 км  слаб. ливневой дождь  10/4 1000 м кучево-дожд., средняя 
[Cb cap|As trans]
+0.4 -1.9 84 1008  0.3  715  288           
21 05.01.13 270 (З) 10 км  слаб. ливневой снег  10/6 270 м кучево-дожд., средняя 
[Cb cap|Ac und]
+0.3 -0.3 96 -1  1008.5  0.4  715  288           
00 06.01.13 230 (ЮЗ) >10 км  в посл. час ливневой снег  8/3 1000 м кучево-дожд., средняя 
[Cb calv|Ac trans]
+0.6 +0.1 96 -1  1008.6  0.2  715  287           
03 06.01.13 150 (ЮВ) >10 км    3/0 средняя 
[Ac trans]
-1.1 -1.8 95 -1  1008.8  -0.2  715  289  -1.1    мокрый или
старый снег
50-90% 
06 06.01.13 200 (Ю) >10 км    8/3 600 м кучево-дожд., средняя 
[Cb calv|Ac trans]
-0.1 -0.9 94 -1  1009.7  1.1  716  289  -1.8         
12 06.01.13 120 (ЮВ) >10 км    8/1 1000 м средняя, верхняя 
[Sc|Ac trans|Ci fib]
+2.6 -0.3 81 +1  1007.6  -1  722  288           
15 06.01.13 110 (В) >10 км    3/0 средняя 
[Ac trans]
-0.8 -2.2 90 -3  1008.2  -0.2  715  289    +4.2       
18 06.01.13 130 (ЮВ) >10 км    8/0 средняя 
[Ac trans]
-0.7 -1.9 92 -3  1007.8  -0.3  715  289           
21 06.01.13 170 (Ю) >10 км    10/3 1000 м средняя 
[Sc|Ac und]
-1.1 -2 93 -3  1008  715  289           
00 07.01.13 130 (ЮВ) >10 км    5/3 600 м средняя 
[Sc|Ac und]
-2.4 -3.3 94 -4  1008.5  0.3  715  291           
03 07.01.13 130 (ЮВ) 3500 м  дымка  10/10 100 м 
[St]
-2.7 -3.1 97 -5  1008.7  -0.1  715  291  -3         
06 07.01.13 130 (ЮВ) 2000 м  дымка  10/10 100 м 
[St]
-2.9 -3.2 98 -6  1008.6  0.1  715  291           
09 07.01.13 130 (ЮВ) 4000 м  дымка{туман}  10/10 120 м 
[St]
-1.8 -2.6 94 -5  1008.2  -0.2  715  290           
12 07.01.13 080 (В) 2000 м  слаб. снег{туман}  10/10 150 м 
[Ns]
-2.8 -3.2 97 -7  1007.1  -1.2  714  291           
15 07.01.13 080 (В) 6{10}  0900 м  снег{туман}  ?/?  
-4.6 -5.1 96 -9  1007.8  0.2  714  293    -1.4     
18 07.01.13 090 (В) 2000 м  снег{туман}  10/10 120 м 
[Ns]
-5 -5.5 96 -9  1007.9  714  294           
21 07.01.13 090 (В) 2000 м  слаб. снег  10/10 150 м 
[Ns]
-5.7 -6.4 95 -9  1007.3  713  294           
00 08.01.13 100 (В) 10 км  {снег}  10/6 100 м кучево-дожд., средняя 
[Cb calv|Ac und]
-6 -6.6 95 -7  1007.3  713  295           
03 08.01.13 110 (В) 1100 м  дымка  10/10 100 м 
[St]
-6.2 -6.9 95 -8  1007.1  -0.3  713  295  -6.2       
06 08.01.13 080 (В) 1600 м  слаб. ливневой снег{туман}  10/6 120 м кучево-дожд., средняя 
[Cb cap|Ac und]
-6.1 -6.8 95 -6  1007.5  0.4  713  295           
09 08.01.13 320 (СЗ) 4000 м  слаб. ливневой снег  10/6 150 м кучево-дожд., средняя 
[Cb cap|Ac und]
-5 -5.7 95 -5  1007.8  0.5  714  294           
12 08.01.13 270 (З) 10 км  {ливн. осадки}  10/8 300 м кучево-дожд., средняя 
[Cb calv|Ac und]
-4.6 -5.3 95 -7  1008.5  0.7  714  293        мокрый или
старый снег
50-90% 
15 08.01.13 270 (З) 10 км    10/8 210 м кучево-дожд., средняя 
[Cb calv|Ac und]
-5 -5.7 95 -9  1009.8  1.2  715  294    -4.2     
18 08.01.13 280 (З) 6-10{11}  10 км    9/6 400 м кучево-дожд., средняя 
[Cb calv|Ac trans]
-4.5 -5.4 93 -9  1010.3  1.2  716  294           
21 08.01.13 280 (З) 7-11{12}  1200 м  снег  10/10 240 м 
[Ns]
-4.8 -5.4 96 -10  1009.9  -0.5  715  294           
00 09.01.13 270 (З) 6{12}  10 км  позёмок{снег}  10/10 300 м 
[Ns]
-5.6 -6.2 96 -10  1010.4  0.3  716  295           
03 09.01.13 270 (З) 10 км  позёмок  10/10 300 м 
[Ns]
-6.7 -7.6 93 -9  1010  -0.6  715  296  -6.7    0.2     
06 09.01.13 270 (З) >10 км  в посл. час снег  8/4 300 м верхняя 
[St|Ci fib]
-6.3 -7.4 92 -10  1011.3  1.2  716  296           
09 09.01.13 270 (З) >10 км    8/5 300 м верхняя 
[Sc|Ci fib]
-4.8 -6.7 86 -9  1010.9  716  294           
12 09.01.13 270 (З) >10 км    8/8 300 м средняя, верхняя 
[Frnb|As trans|Ci]
-5.1 -7.7 82 -9  1011.1  716  295           
15 09.01.13 330 (СЗ) >10 км  снежные зёрна  10/10 300 м 
[St]
-7.5 -8.6 92 -10  1013.5  1.8  718  298    -4.2  0.2     
18 09.01.13 280 (З) 10 км  слаб. снег  8/8 540 м 
[Sc]
-9 -10.3 90 -13  1014.5  0.5  718  300           
21 09.01.13 270 (З) 7{10}  1800 м  ливневой снег  10/8 420 м кучево-дожд., средняя 
[Cb cap|Ac und]
-9.2 -11 87 -15  1015.4  0.9  719  301           
00 10.01.13 280 (З) 6{10}  >10 км  {ливн. осадки, снег}  10/6 800 м кучево-дожд., средняя 
[Cb calv|Ac und]
-9.7 -11.2 89 -15  1016  0.5  719  301           
03 10.01.13 300 (СЗ) >10 км  слаб. ливневой снег  10/5 200 м кучево-дожд., средняя 
[Cb cap|Ac und]
-10.2 -12 87 -14  1016.9  0.7  719  302  -10.3    0.4     
06 10.01.13 270 (З) 10 км  слаб. ливневой снег  10/8 420 м кучево-дожд., средняя 
[Cb cap|Ac As]
-9.7 -11.4 87 -13  1018.7  1.8  721  302           
09 10.01.13 310 (СЗ) >10 км  в посл. час ливневой снег  9/3 1000 м средняя 
[Sc diur, vesp|Ac trans]
-7.5 -10.6 78 -9  1018.4  0.2  721  300           
12 10.01.13 320 (СЗ) >10 км  {ливн. осадки}  8/4 600 м средняя 
[Sc diur, vesp|Ac trans]
-7.1 -10.2 79 -10  1018.5  0.2  721  299           
15 10.01.13 310 (СЗ) >10 км    6/3 600 м средняя 
[Sc diur, vesp|Ac trans]
-10.8 -12.3 88 -15  1020.8  1.3  722  304    -6.1  0.0     
18 10.01.13 250 (З) >10 км    3/0 средняя 
[Ac trans]
-12.4 -14 88 -16  1022  0.8  723  306           
21 10.01.13 230 (ЮЗ) >10 км    3/0 средняя 
[Ac trans]
-14.7 -16.4 87 -18  1022.6  0.1  723  309           
00 11.01.13 240 (ЮЗ) >10 км    ясно 
-11.2 -13.5 83 -14  1022.1  0.2  723  305           
03 11.01.13 230 (ЮЗ) >10 км    3/0 средняя 
[Ac trans]
-11.5 -14.1 81 -15  1021.9  -0.2  723  305  -14.7      10  неравномерный
сухой снег
100% 
06 11.01.13 180 (Ю) 10 км  слаб. снег  10/8 800 м средняя 
[Sc|Ac und]
-5.6 -7.9 84 -7  1021.9  1.2  724  298           
09 11.01.13 130 (ЮВ) >10 км  слаб. снег  9/6 700 м средняя 
[Sc|Ac trans]
-1.8 -5.7 75 -3  1020.3  -0.7  723  294           
12 11.01.13 120 (ЮВ) >10 км  {снег}  8/3 600 м средняя 
[Sc|Ac trans]
-2.2 -6.1 75 -4  1019.8  -0.6  723  294           
15 11.01.13 160 (Ю) >10 км    6/0 средняя 
[Ac trans]
-4.5 -7.4 80 -7  1021  0.7  723  297      0.2     
18 11.01.13 150 (ЮВ) >10 км    8/0 средняя 
[Ac trans]
-2.5 -6.6 73 -5  1020.8  0.2  723  295           
21 11.01.13 140 (ЮВ) >10 км    3/0 средняя 
[Ac trans]
-2.1 -6.9 70 -5  1020.9  0.1  724  294           
00 12.01.13 130 (ЮВ) >10 км    3/0 средняя 
[Ac trans]
-2.9 -8.2 67 -6  1021.1  0.1  724  295           
03 12.01.13 120 (ЮВ) >10 км    3/0 средняя 
[Ac trans]
-2.4 -7.4 69 -6  1019.8  -1.2  723  294  -4.4      неравномерный
сухой снег
100% 
06 12.01.13 120 (ЮВ) 6{10}  >10 км    8/0 средняя, верхняя 
[Ac trans|Ci fib]
-1.1 -7.1 64 -5  1020.4  0.9  723  293           
09 12.01.13 140 (ЮВ) 6{10}  >10 км    9/4 1000 м средняя 
[Sc|Ac trans]
+2.2 -5.1 58 -1  1019.9  0.2  724  290           
12 12.01.13 130 (ЮВ) >10 км    10/4 1000 м средняя 
[Sc|Ac und]
+1.8 -5 61 +1  1020.3  0.3  724  290           
15 12.01.13 120 (ЮВ) >10 км    10/4 1000 м средняя 
[Sc|Ac und]
-0.6 -5.7 68 -2  1021.1  0.2  724  293    +2.4       
18 12.01.13 130 (ЮВ) >10 км  слаб. снег  10/5 900 м средняя 
[Sc|Ac und]
-1.2 -5.4 73 -5  1020.6  -0.5  724  293           
21 12.01.13 130 (ЮВ) >10 км  {снег}  10/4 1000 м средняя 
[Sc|Ac und]
-1.6 -3.4 87 -3  1020.5  -0.2  723  294           
00 13.01.13 170 (Ю) >10 км  {снег}  10/4 600 м средняя 
[Sc|Ac und]
-1.7 -3.4 88 -1  1019.7  -0.7  723  293           
03 13.01.13 120 (ЮВ) >10 км    10/4 600 м средняя 
[Sc|Ac und]
-1.3 -3.6 84 -2  1017.4  -2.1  721  292  -2.1    0.0  неравномерный
мокрый или
старый снег
100% 
06 13.01.13 090 (В) >10 км    10/4 600 м средняя 
[Sc|Ac und]
-0.4 -3.9 77 1016.1  -1.1  720  291           
09 13.01.13 140 (ЮВ) >10 км    10/4 1000 м средняя 
[Sc|Ac und]
+0.3 -3.4 76 1015.4  -0.5  720  290           
12 13.01.13 150 (ЮВ) >10 км    9/4 1000 м средняя 
[Sc|Ac trans]
+1 -3.6 71 -1  1014.3  -0.9  719  289           
15 13.01.13 220 (ЮЗ) >10 км    10/3 1000 м средняя 
[Sc|Ac und]
+3 -3.5 62 +2  1014.9  0.9  720  287    +3.2       
18 13.01.13 270 (З) 11-16  4000 м  слаб. снег{дождь}  10/10 120 м 
[Ns]
-0.4 -1.1 95 -6  1017.7  722  291           
21 13.01.13 270 (З) 12-17{19}  2000 м  дымка{снег, туман}  10/10 100 м 
[Ns]
-1.6 -2.1 97 -7  1019.9  1.8  723  293           
00 14.01.13 270 (З) 12  4000 м  дымка{снег, туман}  10/10 200 м верхняя 
[Sc|Cs]
-2 -3.2 92 -8  1022  2.1  725  294           
03 14.01.13 280 (З) 11  >10 км    3/3 300 м 
[Sc]
-4.3 -6.6 84 -11  1023.1  0.3  725  297  -4.3    0.0  неравномерный
мокрый или
старый снег
100% 
06 14.01.13 280 (З) 8-12{17}  >10 км    3/3 200 м 
[St]
-5.4 -8.1 81 -11  1026.4  2.9  727  300  -5.6         
09 14.01.13 280 (З) 9-14{17}  >10 км    9/9 450 м 
[Sc diur, vesp]
-4.4 -7.4 80 -10  1027.4  1.2  728  299           
12 14.01.13 280 (З) 10-14  1000 м  ливневой снег  9/9 210 м кучево-дожд. 
[Cb cap]
-4.5 -6.6 85 -10  1028.9  1.4  729  299           
15 14.01.13 270 (З) 10 км  позёмок{ливн. осадки}  8/5 300 м кучево-дожд., верхняя 
[Cb cap|Ci fib]
-4.8 -6.6 87 -10  1030.6  1.5  730  300    -4  0.0     
18 14.01.13 270 (З) 7-11{13}  >10 км  {ливн. осадки}  5/5 300 м кучево-дожд. 
[Cb calv]
-5.6 -7.4 87 -11  1031.8  731  301           
21 14.01.13 270 (З) >10 км    10/6 270 м средняя 
[St|Ac As]
-5.5 -7.1 88 -10  1032.2  0.4  731  301          замёрзшая 
00 15.01.13 260 (З) 6{12}  >10 км    10/6 480 м средняя 
[Sc|Ac und]
-5.9 -7.9 86 -10  1032.8  0.5  731  302           
03 15.01.13 270 (З) >10 км    10/8 300 м средняя 
[Sc|Ac und]
-6 -8.2 84 -11  1033.1  0.2  732  302  -6.1      неравномерный
мокрый или
старый снег
100% 
06 15.01.13 260 (З) 5-10  >10 км    4/4 400 м 
[St]
-6 -8.2 84 -10  1034.2  1.1  732  303  -6.6         
09 15.01.13 270 (З) 7-11{12}  >10 км    1/1 600 м 
[Sc]
-4.3 -7.6 78 -9  1033.4  -0.4  732  300           
12 15.01.13 270 (З) >10 км    ясно 
-2.7 -7.7 68 -7  1032.5  -0.5  732  299           
15 15.01.13 240 (ЮЗ) >10 км    ясно 
-5.5 -9 76 -8  1033.2  0.1  732  302    -2.5       
18 15.01.13 190 (Ю) >10 км    ясно 
-8.8 -2 100 -10  1033.6  -0.3  732  305           
21 15.01.13 160 (Ю) >10 км    ясно 
-5.5 -10 70 -7  1032.6  -0.3  731  302           
00 16.01.13 180 (Ю) >10 км    ясно 
-6.9 -12.7 63 -10  1032  -0.9  731  303           
03 16.01.13 130 (ЮВ) >10 км    ясно 
-6.1 -13 58 -9  1029.4  -2.3  729  302  -8.9      неравномерный
мокрый или
старый снег
100% 
06 16.01.13 160 (Ю) >10 км    8/0 верхняя 
[Ci fib]
-4.8 -11.6 59 -8  1028.3  -0.8  728  300           
09 16.01.13 130 (ЮВ) >10 км    8/0 верхняя 
[Ci fib]
-0.3 -10.9 45 -3  1025.3  -1.9  727  294           
12 16.01.13 130 (ЮВ) >10 км    8/0 верхняя 
[Ci fib]
+0.8 -9.8 45 -3  1023.1  -1.9  726  292           
18 16.01.13 120 (ЮВ) >10 км    4/0 верхняя 
[Ci fib]
-3.5 -12.7 49 -6  1020.7  -2  723  296           
21 16.01.13 130 (ЮВ) >10 км    ясно 
-3.6 -13.1 48 -7  1018.3  -2.3  721  296           
00 17.01.13 140 (ЮВ) >10 км    1/0 верхняя 
[Ci fib]
-4.1 -11.7 55 -7  1016.4  -1.9  720  296           
03 17.01.13 150 (ЮВ) >10 км    1/0 верхняя 
[Ci fib]
-1.9 -12.9 43 -5  1013.6  -2.2  718  293  -4.6      неравномерный
мокрый или
старый снег
100% 
06 17.01.13 130 (ЮВ) >10 км    8/0 средняя, верхняя 
[Ac trans|Ci fib]
-2.1 -11.1 50 -5  1012.2  -1.3  717  292           
09 17.01.13 150 (ЮВ) >10 км    8/3 600 м средняя 
[Sc|Ac trans]
-0.4 -9.1 52 -3  1010.3  -1.4  716  290           
12 17.01.13 170 (Ю) >10 км    9/4 600 м средняя 
[Sc|Ac trans]
+1.5 -7.2 52 -1  1008.3  -1.6  715  287           
15 17.01.13 280 (З) >10 км    9/0 средняя, верхняя 
[Ac trans|Ci fib]
+6.1 -9.4 32 +5  1009.6  2.1  717  283    +7       
18 17.01.13 290 (З) >10 км    10/0 средняя 
[Ac und]
+6.9 -8.8 32 +5  1010.7  1.2  718  283           
21 17.01.13 260 (З) 7-10{12}  >10 км    10/0 средняя 
[Ac und]
+6.3 -2.8 52 +4  1012.2  1.3  719  283           
00 18.01.13 280 (З) 6{12}  >10 км    8/0 средняя, верхняя 
[Ac trans|Ci fib]
+5.3 +1.1 74 +3  1014.2  1.7  720  284           
03 18.01.13 270 (З) >10 км  {дождь}  4/1 1000 м средняя 
[Sc|Ac trans]
+5.4 -0.3 67 +3  1014.9  0.7  720  285  +4.9    0.0     
06 18.01.13 220 (ЮЗ) >10 км  {дождь}  4/0 средняя 
[Ac trans]
+4.5 -0.4 70 +3  1015.8  0.7  721  286  +2.9         
09 18.01.13 180 (Ю) >10 км    4/0 средняя, верхняя 
[Ac trans|Ci fib]
+7.9 -0 57 +6  1015.4  0.2  721  282           
12 18.01.13 170 (Ю) >10 км    4/0 средняя 
[Ac trans]
+9.6 -2.8 42 +9  1014.4  -0.6  721  281           
15 18.01.13 130 (ЮВ) >10 км    3/0 средняя 
[Ac trans]
+5.2 -3.6 53 +4  1015.3  721  285    +9.6       
18 18.01.13 130 (ЮВ) >10 км    8/0 средняя 
[Ac trans]
+5.4 -2.2 58 +4  1014.9  -0.4  720  285           
21 18.01.13 140 (ЮВ) >10 км    8/0 средняя 
[Ac trans]
+5.4 -2.7 56 +4  1013.5  -1.3  719  285           
00 19.01.13 130 (ЮВ) >10 км    10/0 средняя 
[Ac und]
+4.5 -2.3 61 +3  1013.7  719  285           
03 19.01.13 140 (ЮВ) >10 км    8/0 средняя 
[Ac trans]
+5.6 -2.2 57 +4  1012.9  -0.5  719  284  +4.2      мокрый или
старый снег
50-90% 
06 19.01.13 120 (ЮВ) >10 км    9/3 600 м средняя 
[Sc|Ac trans]
+5.2 -1.8 61 +3  1012  -0.9  718  284  +3.9         
09 19.01.13 130 (ЮВ) >10 км    8/3 600 м средняя, верхняя 
[Sc|Ac trans|Ci fib]
+7.6 -2.2 50 +6  1010.3  -1.1  717  281           
12 19.01.13 120 (ЮВ) 7-10{10}  >10 км    9/3 600 м средняя 
[Sc|Ac trans]
+7.8 -2.5 48 +6    -1.2  717  281           
15 19.01.13 110 (В) 5{10}  >10 км    9/0 средняя 
[Ac trans]
+3.6 -2.2 66 +1  1009.6  0.1  716  285    +8.2       
18 19.01.13 140 (ЮВ) >10 км    10/3 1000 м средняя 
[Sc|Ac und]
+1.4 -2 78 -1  1009.6  -0.5  716  287           
21 19.01.13 140 (ЮВ) >10 км    10/3 600 м средняя 
[Sc|Ac und]
+0.8 -1.9 82 -1  1008.5  -1.2  715  287           
00 20.01.13 330 (СЗ) >10 км    4/0 средняя 
[Ac trans]
+1.8 -2.6 73 +1  1008.3  715  286           
03 20.01.13 360 (С) >10 км    9/0 средняя 
[Ac trans]
+1.3 -2.1 78 +2  1008.5  0.1  715  287  -1.2      мокрый или
старый снег
50-90% 
06 20.01.13 210 (ЮЗ) >10 км    10/3 600 м кучево-дожд., средняя 
[Cb calv|Ac und]
+1.9 -1.1 81 +1  1010.8  2.3  717  287           
09 20.01.13 280 (З) >10 км    10/3 600 м кучево-дожд., средняя 
[Cb calv|Ac und]
+6.2 -0.4 63 +5  1010.9  718  283           
12 20.01.13 250 (З) 6{11}  >10 км    8/3 1000 м верхняя 
[Sc|Ci fib]
+7.6 +0.9 63 +6  1010.1  -0.5  717  281           
15 20.01.13 290 (З) 3{11}  >10 км    8/4 600 м кучево-дожд., средняя 
[Cb calv|Ac trans]
+5.2 -0.3 68 +4  1011.8  1.2  718  284    +8       
18 20.01.13 250 (З) 2{11}  >10 км    8/3 600 м кучево-дожд., средняя 
[Cb calv|Ac trans]
+3.7 +0.4 79 +3  1011.5  -0.6  718  285           
21 20.01.13 210 (ЮЗ) 2{10}  >10 км  в посл. час ливневой дождь  10/5 900 м кучево-дожд., средняя 
[Cb calv|Ac und]
+4 +1.3 83 +4  1012.8  1.2  719  285           
00 21.01.13 260 (З) 8-12{13}  >10 км  {ливн. осадки}  8/4 600 м кучево-дожд., средняя 
[Cb calv|Ac trans]
+4.8 -0.2 70 +2  1012.9  0.3  719  285           
03 21.01.13 250 (З) >10 км    4/3 600 м кучево-дожд., средняя 
[Cb calv|Ac trans]
+3.3 +1.1 85 +1  1013.6  0.4  719  286  +3.1    0.0  <0.5  мокрый или
старый снег
10-40% 
06 21.01.13 260 (З) 5{10}  >10 км    10/8 300 м средняя 
[St|Ac und]
+3.9 +2.1 88 +2  1015  1.4  720  286  +3         
09 21.01.13 190 (Ю) >10 км    10/6 800 м средняя 
[Sc|Ac und]
+5.3 +2.5 82 +5  1014.7  720  284           
12 21.01.13 180 (Ю) >10 км    10/3 600 м средняя 
[Sc|Ac und]
+6.4 +1.3 70 +5  1013.9  -0.6  720  283           
15 21.01.13 230 (ЮЗ) >10 км    10/4 1000 м средняя 
[Sc|Ac und]
+7 +1.2 67 +6  1014  0.2  720  283    +7.6       
18 21.01.13 240 (ЮЗ) >10 км    10/4 1000 м средняя 
[Sc|Ac und]
+7.5 +2.9 73 +7  1014.2  0.3  720  282           
21 21.01.13 220 (ЮЗ) >10 км    6/0 средняя 
[Ac trans]
+10 +4.4 68 +10  1012.9  -0.7  720  279           
00 22.01.13 170 (Ю) >10 км    6/0 средняя 
[Ac trans]
+6.5 +1.7 71 +5  1012.7  -0.9  719  283           
03 22.01.13 170 (Ю) >10 км    6/0 
+6.5 +1.7 71 +5  1012.7  -0.9             
06 22.01.13 230 (ЮЗ) >10 км    6/0 средняя 
[Ac trans]
+8.8 +2.5 65 +9  1010.6  -0.4  718  280           
09 22.01.13 130 (ЮВ) >10 км    8/0 средняя 
[Ac trans]
+15.4 +0.9 37 +17  1009  -0.4  718  274           
12 22.01.13 110 (В) >10 км    8/0 средняя 
[Ac trans]
+14.4 +2.6 45 +15  1007.5  -1.6  716  274           
15 22.01.13 тихо ()   >10 км    10/0 средняя 
[Sc|Ac und]
+9.7 +3.5 65 +10  1008.1  -0.2  716  278    +15.9       
18 22.01.13 140 (ЮВ) >10 км    4/0 средняя 
[Ac trans]
+8 +2.5 68 +8  1007.9  -0.5  716  280           
21 22.01.13 270 (З) >10 км    6/0 средняя 
[Ac trans]
+11.4 +1.2 49 +12  1007.8  0.5  716  277           
00 23.01.13 160 (Ю) >10 км    9/0 средняя 
[Ac trans]
+8.7 +1 58 +10  1008.1  -0.2  716  279           
03 23.01.13 260 (З) >10 км    10/0 средняя 
[Ac und]
+9.2 +1.5 59 +10  1008.1  0.1  716  279  +6.3      <0.5  мокрый или
старый снег
10-40% 
06 23.01.13 260 (З) >10 км    10/4 1000 м средняя 
[Sc|Ac und]
+9.5 +1.5 57 +11  1009.1  717  279           
09 23.01.13 260 (З) 8-11  >10 км  слаб. ливневой дождь  10/8 840 м кучево-дожд., средняя 
[Cb cap|Ac und]
+7.8 +5.6 86 +5  1011  1.6  718  280           
12 23.01.13 200 (Ю) 3{11}  >10 км  {ливн. осадки}  4/3 1000 м средняя 
[Sc diur, vesp|Ac trans]
+10.7 +6.6 76 +10  1009.2  -1.2  717  277           
15 23.01.13 250 (З) >10 км    4/0 верхняя 
[Ci fib]
+6.5 +3.5 81 +6  1010.6  0.6  718  282    +11.6     
18 23.01.13 230 (ЮЗ) >10 км    6/0 верхняя 
[Ci fib]
+6.1 +3.4 83 +5  1010.8  0.1  718  282           
21 23.01.13 180 (Ю) >10 км    8/0 средняя 
[Ac trans]
+5.8 +3.1 83 +7  1010.2  -0.6  717  282           
00 24.01.13 210 (ЮЗ) >10 км    8/0 средняя 
[Ac trans]
+5.7 +2.1 78 +5  1009.3  -0.9  717  282           
03 24.01.13 260 (З) 10 км  слаб. ливневой дождь  10/8 600 м кучево-дожд., средняя 
[Cb cap|Ac und]
+6.5 +3.9 83 +4  1009.9  0.8  717  282  +4.8    0.0     
06 24.01.13 260 (З) 12-19{19}  >10 км  {ливн. осадки}  5/3 300 м кучево-дожд., средняя 
[Cb calv|Ac trans]
+6.6 +3.4 80 +3  1010.4  0.4  717  282           
09 24.01.13 260 (З) 15-20{21}  >10 км    5/5 600 м кучево-дожд. 
[Cb calv]
+8.4 +1.3 61 +5  1010.7  0.6  718  280           
12 24.01.13 260 (З) 15-21{25}  >10 км    4/4 600 м кучево-дожд. 
[Cb calv]
+9.1 -1.9 46 +6  1011.1  0.5  718  280           
15 24.01.13 280 (З) 7-10{22}  >10 км    ясно 
+4.6 +1.3 79 +2  1012.7  0.7  719  285    +9.4     
18 24.01.13 270 (З) 9-13{18}  >10 км    ясно 
+3.1 +1.1 87 -1  1013.5  0.4  719  286           
21 24.01.13 280 (З) 6-10{13}  10 км    6/6 240 м 
[St]
+2.3 +1 91 -1  1014.5  0.8  720  287           
00 25.01.13 250 (З) 1{10}  >10 км    10/10 210 м 
[St]
+2.2 +1.1 92 +3  1015.2  0.6  720  288           
03 25.01.13 140 (ЮВ) 10 км    10/10 200 м 
[St]
+2.1 +1.1 93 +1  1014.8  0.6  720  288  +2         
06 25.01.13 100 (В) 4000 м  дымка  6/4 300 м средняя 
[St|Ac trans]
+2.9 +2 94 +2  1014.6  0.1  720  287           
09 25.01.13 120 (ЮВ) >10 км    6/0 верхняя 
[Ci fib]
+7.3 +2.7 73 +6  1012  -1.6  719  282           
12 25.01.13 120 (ЮВ) 9-11{11}  >10 км    10/0 средняя, верхняя 
[Ac trans|Ci fib]
+6 +1.1 71 +3  1009.6  -2.6  717  282           
15 25.01.13 120 (ЮВ) 6{13}  >10 км    10/0 средняя, верхняя 
[Ac trans|Ci fib]
+3 +0.6 84 1010  0.1  717  285    +8.3       
18 25.01.13 120 (ЮВ) 5{11}  >10 км    10/0 средняя 
[Ac und]
+3.4 +1.3 86 +1  1010.2  0.3  717  285           
21 25.01.13 120 (ЮВ) >10 км    10/5 330 м средняя 
[Sc|Ac und]
+2.7 +1.5 92 +1  1010.2  -0.2  717  286           
00 26.01.13 130 (ЮВ) 10 км  в посл. час ливневой дождь  10/8 500 м кучево-дожд., средняя 
[Cb cap|Ac und]
+2.2 +1.7 97 +1  1010  -0.3  716  286           
03 26.01.13 100 (В) 0100 м  туман  ?/?  
+1 +0.6 97 -1  1010.3  717  287         
06 26.01.13 100 (В) 10 км  {туман}  10/8 600 м средняя 
[Sc|Ac und]
+2.1 +1.7 97 +3  1012.9  2.7  719  287  +0.3         
09 26.01.13 270 (З) >10 км    8/8 500 м 
[Sc]
+8.1 +5.1 81 +7  1013.1  1.4  720  281           
12 26.01.13 110 (В) >10 км    9/5 600 м средняя 
[Sc|Ac trans]
+7.1 +4.4 83 +6  1013.5  0.2  720  282           
15 26.01.13 150 (ЮВ) >10 км    5/3 1000 м средняя 
[Sc|Ac trans]
+2.7 +1.9 94 +1  1015.8  1.2  721  287    +8.5       
18 26.01.13 160 (Ю) >10 км    6/0 средняя 
[Ac trans]
+2.8 +1.8 93 1015.5  -0.2  721  287           
21 26.01.13 150 (ЮВ) >10 км    10/0 средняя 
[Ac und]
+5.2 +1.8 79 +3  1015.4  0.3  721  285           
00 27.01.13 120 (ЮВ) >10 км    10/0 средняя 
[Ac und]
+4.6 +0.9 77 +2  1014.7  -0.8  720  285           
03 27.01.13 100 (В) >10 км    10/0 средняя 
[Ac und]
+0.9 -0.2 92 -1  1015.6  0.1  720  289  +0.9        влажная 
06 27.01.13 120 (ЮВ) 0200 м  туман  ?/?  
+0.2 -0.2 97 -3  1016.6  0.8  721  290  -0.4         
09 27.01.13 100 (В) 7{10}  10 км  {туман}  10/8 180 м средняя 
[St|Ac und]
+1.9 +0.5 90 -2  1015.2  -0.9  720  288           
12 27.01.13 100 (В) 9-11  10 км  {туман}  10/8 120 м средняя 
[St|Ac und]
-0.1 -0.9 94 -5  1014.2  -1.4  719  290           
15 27.01.13 110 (В) 7-10{13}  6000 м  дымка  10/10 100 м 
[St]
-1.8 -2.2 97 -6  1014.1  -0.5  719  292    +2.2       
18 27.01.13 120 (ЮВ) 10-13{14}  2000 м  дымка  10/10 50 м 
[St]
-2 -2.3 98 -7  1013.8  -0.3  719  292           
21 27.01.13 110 (В) 8-11{13}  1000 м  дымка{туман} [диам. гололёда 0 мм]  10/10 60 м 
[St]
-2.3 -2.6 98 -7  1014.5  0.6  719  292           
00 28.01.13 110 (В) 6{11}  0200 м  туман [диам. гололёда 2 мм]  ?/?  
-2.3 -2.6 98 -6  1014.8  0.3  719  292           
03 28.01.13 120 (ЮВ) 0400 м  туман  ?/?  
-1.6 -2 97 -4  1015.8  720  292  -2.3         
06 28.01.13 130 (ЮВ) 4000 м  слаб. переохл. дождь (гололёд){туман} [диам. гололёда 5 мм]  10/5 180 м средняя 
[As op]
-0.4 -0.7 98 -1  1016.9  1.3  721  291           
09 28.01.13 130 (ЮВ) 0600 м  туман{дождь}  ?/?  
+0.4 +0.1 98 +1  1017.2  0.5  721  290           
12 28.01.13 110 (В) 10 км  {дождь, туман}  10/5 180 м 
[St]
+2.6 +2.3 98 +1  1016.9  0.2  722  288           
15 28.01.13 110 (В) 10 км  {туман}  9/9 180 м 
[Sc diur, vesp]
+2 +1.7 98 +1  1017.8  0.7  722  288    +3     
18 28.01.13 130 (ЮВ) 0400 м  туман  ?/?  
-0 -0.3 98 -3  1018.4  0.1  722  291           
21 28.01.13 120 (ЮВ) 10 км  {туман}  10/10 150 м 
[St]
-0.1 -0.3 99 -3  1017.8  -0.5  722  291           
00 29.01.13 140 (ЮВ) 10 км  {туман}  10/10 210 м 
[St]
-0.5 -0.8 98 -3  1017.2  -0.7  721  291           
03 29.01.13 110 (В) 0800 м  туман  ?/?  
-0.8 -1 99 -3  1016.9  -0.3  721  291  -0.9        влажная 
06 29.01.13 100 (В) 0200 м  туман [диам. гололёда 1 мм]  ?/?  
-1.5 -1.7 99 -5  1016.9  -0.2  721  292  -1.5         
09 29.01.13 100 (В) 0200 м  туман [диам. гололёда 3 мм]  ?/?  
-1.8 -2 99 -5  1016  -0.9  720  292           
12 29.01.13 100 (В) 2000 м  дымка{туман} [диам. гололёда 4 мм]  10/10 60 м 
[St]
-1.5 -1.8 98 -5  1014.8  -1.1  719  292           
15 29.01.13 100 (В) 0400 м  туман [диам. гололёда 5 мм]  ?/?  
-2.3 -2.6 98 -6  1015.2  0.2  719  293    -0.8       
18 29.01.13 100 (В) 0200 м  туман [диам. сложн. отлож. 6 мм]  ?/?  
-2.8 -3.2 97 -6  1015.2  0.1  719  293           
21 29.01.13 120 (ЮВ) 0200 м  туман [диам. сложн. отлож. 7 мм]  ?/?  
-2.8 -3.2 97 -5  1015.1  0.1  719  293           
00 30.01.13 150 (ЮВ) 0900 м  туман [диам. сложн. отлож. 8 мм]  ?/?  
-2.7 -3.1 97 -2  1015  719  293           
03 30.01.13 300 (СЗ) 10 км  {туман}  10/10 50 м 
[St]
-2.3 -2.6 98 -3  1015.3  0.4  720  293  -3         
06 30.01.13 330 (СЗ) 4000 м  дымка{туман} [диам. сложн. отлож. 8 мм]  10/10 150 м 
[St]
-1.8 -2.2 97 -1  1015.9  0.6  720  292           
09 30.01.13 320 (СЗ) 10 км  {снег} [диам. сложн. отлож. 8 мм]  10/10 240 м 
[Ns]
-0.5 -0.8 98 1015.2  -0.3  720  291           
12 30.01.13 340 (С) >10 км  {снег}  10/6 240 м 
[St]
+0.2 -0.5 95 -1  1014.9  -0.2  720  290           
15 30.01.13 340 (С) 10 км    10/10 120 м 
[St]
-0.8 -1.3 96 -2  1016.1  0.9  720  291    +0.5  0.0     
18 30.01.13 290 (З) >10 км    10/10 240 м 
[St]
-1.2 -1.6 97 -1  1016.7  0.5  721  292           
21 30.01.13 270 (З) 10 км    9/9 330 м 
[St]
-1.4 -1.9 96 -2  1016  -0.7  720  292           
00 31.01.13 280 (З) 10 км    10/9 180 м 
[St]
-1.1 -1.6 96 -1  1015.7  -0.2  720  291           
03 31.01.13 240 (ЮЗ) 1200 м  дымка{туман}  10/10 100 м 
[St]
-1.4 -1.8 97 -1  1015.4  -0.4  720  292  -1.5         
06 31.01.13 250 (З) 4000 м  дымка{туман}  9/5 150 м средняя 
[St|Ac trans]
-0.5 -0.8 98 -1  1014.8  -0.4  719  290           
09 31.01.13 000 (С) 41  0300 м    5/5 2000 м средняя 
[Sc|Ac trans]
-0.8   1012.2  -1.6  718             
12 31.01.13 340 (С) >10 км    9/9 240 м кучево-дожд. 
[Cb calv]
+3.2 +0.7 84 +2  1011.2  -1.1  718  286           
15 31.01.13 070 (В) 10 км    9/9 180 м 
[Sc diur, vesp]
+0.2 -0.5 95 -1  1011.7  -0.2  717  289    +4.5       
18 31.01.13 120 (ЮВ) 0200 м  туман  ?/?  
+0.2 -0.1 98 +1  1011.2  -0.4  717  289           
21 31.01.13 180 (Ю) 0200 м  туман  ?/?  
+0.4 +0.1 98 +1  1010.7  -0.5  717  288           
00 01.02.13 200 (Ю) 4000 м  дымка{туман}  10/10 750 м 
[Sc]
+0.8 +0.5 98 1010.1  -0.4  716  288           
03 01.02.13 260 (З) >10 км    10/6 600 м средняя 
[Sc|Ac und]
+1 -0.5 90 1009.6  -0.5  716  287  +0.2         
06 01.02.13 280 (З) >10 км    10/5 1000 м средняя 
[Sc|Ac und]
+1.6 -0.1 88 +1  1010.3  0.8  717  287           
09 01.02.13 230 (ЮЗ) >10 км    10/4 1000 м средняя 
[Sc|Ac und]
+4.5 -1.1 67 +3  1009.2  -0.5  716  284           
Время (UTC), дата Ветер
(°,м/с) 
Видим.   Явления Облачность Т
(°С)
Тd
(°С)
f(%) Тe
(°С)
Pmin
(гПа)
dP
(гПа)
Po
(мм)
O2
(г/м3)
Тmin Tmax R s Состояние
почвы